[[{"header":{"parameterUnit":"m.s-1","parameterCategory":1,"la1":30.2991,"la2":30.254,"lo1":-89.0895,"lo2":-89.0444,"dy":0.0017,"dx":0.0017,"nx":28,"ny":28,"refTime":"2024-10-21T09:00:00:Z","depth":0,"parameterNumber":2,"parameterNumberName":"U-component_of_WINDS"},"data":[0,0,0,0,0,0,0,0,0,0,0,0,0,0,0,0,0,0,0,0,0,0,0,0,0,0,0,0,0,0,0,0,0,0,0,0,0,0,0,0,0,0,0,0,0,0,0,0,0,0,0,0,0,0,0,0,0,0,0.0072,0.0072,0,0.004,0.004,0.0039,0.0047,0.0048,0.0048,0.0049,0.0011,0.0009,0.0008,0,0,0,0,0,0,0,0,0,0,0,0,0,0.0138,0.0137,0.0072,0.0072,0.0072,0.004,0.004,0.0039,0.0047,0.0048,0.0048,0.0049,0.0011,0.0009,0.0007,0,0,0,0,0,0,0,0,0,0,0,0,0,0.0108,0.0136,0.0073,0.0072,0.0072,0.004,0.004,0.0039,0.0047,0.0048,0.0049,0.005,0.0012,0.001,0.0007,-0.0027,0,0,-0.0,-0.0001,0,0,0,0,0,0,0,0,0.0109,0.0105,0.0072,0.0072,0.0071,0.0049,0.0049,0.0017,0.0046,0.0056,0.0049,0.005,0.0022,0.0019,0.0011,-0.0029,-0.003,-0.0,-0.0002,-0.0003,-0.0004,0,0,0,0,0,0,0,0.0111,0.0107,0.0059,0.0072,0.0071,0.0072,0.0069,0.0043,0.0034,0.0055,0.0056,0.0052,0.0022,0.0013,0.001,-0.0031,-0.0,-0.0003,-0.0004,-0.0005,-0.0101,-0.0102,0,0,0,0,0,0,0.0115,0.0108,0.006,0.0058,0.0093,0.007,0.0066,0.0055,0.0034,0.0032,0.0051,0.0052,0.0017,0.0013,0.0008,-0.0034,-0.0003,-0.0005,-0.0007,-0.0099,-0.0101,-0.0102,0,0,0,0,0,0,0.0116,0.011,0.0062,0.0084,0.0078,0.0068,0.0055,0.0054,0.0045,0.0031,0.0029,0.0044,0.0017,0.0012,-0.0018,-0.0035,-0.0006,-0.0009,-0.0098,-0.01,-0.0101,-0.0118,0,0,0,0,0,0,0.0118,0.0111,0.0098,0.0083,0.0076,0.0037,0.0054,0.0052,0.0041,0.0042,0.0024,0.0021,0.0018,-0.0014,-0.002,-0.0038,-0.001,-0.0097,-0.0099,-0.0101,-0.0116,-0.012,-0.0124,0,0,0,0,0,0.012,0.0094,0.0097,0.0092,0.0061,0.0036,0.0032,0.0029,0.004,0.0026,0.0018,0.0022,-0.0031,-0.0018,-0.0024,-0.0043,-0.0096,-0.0098,-0.0101,-0.0115,-0.012,-0.0124,0,0,0,0,0,0,0.0104,0.0092,0.0096,0.0064,0.0051,0.0037,0.002,0.0024,0.0006,0.0008,0.0005,0.0,-0.0031,-0.0039,-0.0023,-0.0077,-0.0062,-0.0066,-0.0071,-0.0075,-0.0079,-0.0078,-0.0012,0,0,0,0,0,0.0098,0.008,0.0069,0.0042,0.0036,0.0029,0.0018,0.0018,0.0004,-0.0002,-0.0013,-0.0028,-0.0048,-0.0062,-0.0081,-0.0116,-0.0121,-0.0132,-0.0136,-0.0139,-0.0143,-0.0164,-0.0169,-0.011,-0.011,-0.011,0,0,0.0083,0.0074,0.0062,0.0039,0.0029,0.0009,0.0024,0.0003,-0.0013,-0.0006,-0.0035,-0.0043,-0.006,-0.0093,-0.0108,-0.0101,-0.016,-0.0142,-0.0144,-0.0147,-0.0167,-0.0172,-0.0177,-0.0112,-0.0111,-0.0111,0,0,0.0045,0.0037,0.0013,0.0004,-0.0011,-0.0015,-0.002,-0.0034,-0.0039,-0.0067,-0.0063,-0.0081,-0.0116,-0.0128,-0.0139,-0.0179,-0.0177,-0.0185,-0.0206,-0.0225,-0.023,-0.0234,-0.0251,-0.0256,-0.0189,-0.0189,-0.0189,0,0.0027,-0.0001,0.0,-0.0022,-0.0033,-0.0025,-0.005,-0.0059,-0.008,-0.0089,-0.008,-0.0122,-0.0133,-0.0169,-0.0179,-0.0187,-0.0195,-0.0185,-0.0229,-0.0233,-0.0237,-0.0253,-0.0259,-0.019,-0.019,-0.019,-0.0189,0,-0.0023,-0.0043,-0.006,-0.0079,-0.0091,-0.0114,-0.0117,-0.013,-0.0128,-0.0133,-0.0163,-0.0175,-0.0197,-0.0204,-0.0204,-0.0241,-0.0236,-0.0228,-0.0214,-0.0244,-0.0259,-0.0265,-0.0191,-0.0191,-0.0191,-0.019,0,0,-0.0076,-0.009,-0.0097,-0.0106,-0.012,-0.0136,-0.0158,-0.0177,-0.0189,-0.0203,-0.0223,-0.0251,-0.0244,-0.0256,-0.0256,-0.0273,-0.0306,-0.0263,-0.0264,-0.0273,-0.0349,-0.0357,-0.0364,-0.0303,-0.0304,-0.0305,-0.0348,0,-0.0117,-0.0156,-0.0154,-0.0191,-0.021,-0.0201,-0.0221,-0.0233,-0.0237,-0.0255,-0.026,-0.0281,-0.0268,-0.0275,-0.0291,-0.0299,-0.0322,-0.0295,-0.0324,-0.0326,-0.0324,-0.0371,-0.0381,-0.0421,-0.0354,-0.0355,-0.0356,0,-0.0171,-0.0185,-0.0223,-0.0234,-0.0242,-0.026,-0.0277,-0.0293,-0.0306,-0.0308,-0.032,-0.0317,-0.0342,-0.0324,-0.0358,-0.034,-0.0351,-0.0356,-0.0358,-0.0364,-0.0345,-0.0381,-0.0434,-0.0442,-0.0364,-0.0364,-0.0363,0,-0.0208,-0.0236,-0.0263,-0.027,-0.0282,-0.0295,-0.0301,-0.0313,-0.0324,-0.0339,-0.0347,-0.0365,-0.0376,-0.0391,-0.0394,-0.038,-0.0429,-0.0411,-0.0433,-0.0433,-0.0447,-0.0447,-0.0506,-0.0449,-0.0449,-0.0449,-0.0448,0,-0.0257,-0.0281,-0.028,-0.0297,-0.0324,-0.0321,-0.0349,-0.0353,-0.0363,-0.0382,-0.0375,-0.0393,-0.0393,-0.0412,-0.0414,-0.0443,-0.0447,-0.0451,-0.0452,-0.0454,-0.0454,-0.0464,-0.0463,-0.045,-0.045,-0.0449,-0.0449,0,-0.0305,-0.0305,-0.0334,-0.0342,-0.0344,-0.0364,-0.0372,-0.0389,-0.0391,-0.0414,-0.042,-0.0425,-0.0446,-0.0448,-0.0474,-0.0475,-0.0511,-0.0507,-0.0507,-0.0507,-0.053,-0.0529,-0.0601,-0.0611,-0.0544,-0.0545,-0.0545,0,-0.0338,-0.0356,-0.0365,-0.0376,-0.0383,-0.04,-0.0412,-0.0409,-0.0421,-0.0435,-0.0451,-0.047,-0.0487,-0.0521,-0.0528,-0.0547,-0.0546,-0.0569,-0.055,-0.0551,-0.055,-0.055,-0.0553,-0.0575,-0.0576,-0.0576,-0.0577,0,-0.0396,-0.0395,-0.041,-0.0425,-0.0438,-0.045,-0.0462,-0.0471,-0.047,-0.0484,-0.0504,-0.0517,-0.0541,-0.0562,-0.058,-0.0588,-0.0584,-0.0582,-0.0589,-0.0593,-0.0593,-0.0596,-0.0521,-0.0582,-0.0581,-0.0581,-0.0581,-0.058,-0.044,-0.0456,-0.0465,-0.0482,-0.049,-0.05,-0.0516,-0.0519,-0.0535,-0.0555,-0.0551,-0.0575,-0.0586,-0.061,-0.0619,-0.0638,-0.0631,-0.064,-0.0643,-0.0646,-0.065,-0.0586,-0.0641,-0.0641,-0.0641,-0.0641,-0.064,0,-0.0501,-0.0505,-0.0521,-0.0536,-0.055,-0.0539,-0.0551,-0.0564,-0.0584,-0.0594,-0.0609,-0.0633,-0.0653,-0.0659,-0.0678,-0.0693,-0.0691,-0.0698,-0.0699,-0.0701,-0.0654,-0.0647,-0.0699,-0.0699,-0.0699,-0.0699,-0.0699,-0.0699,-0.0534,-0.0561,-0.056,-0.0591,-0.0595,-0.0617,-0.0625,-0.0634,-0.0642,-0.0669,-0.0684,-0.0687,-0.0696,-0.0716,-0.0733,-0.0735,-0.0744,-0.0753,-0.0754,-0.071,-0.0704,-0.0699,-0.0693,-0.0754,-0.0754,-0.08,-0.08,-0.0801]},{"header":{"parameterUnit":"m.s-1","parameterCategory":1,"la1":30.2991,"la2":30.254,"lo1":-89.0895,"lo2":-89.0444,"dy":0.0017,"dx":0.0017,"nx":28,"ny":28,"refTime":"2024-10-21T09:00:00:Z","depth":0,"parameterNumber":3,"parameterNumberName":"V-component_of_WINDS"},"data":[0,0,0,0,0,0,0,0,0,0,0,0,0,0,0,0,0,0,0,0,0,0,0,0,0,0,0,0,0,0,0,0,0,0,0,0,0,0,0,0,0,0,0,0,0,0,0,0,0,0,0,0,0,0,0,0,0,0,-1.8688,-1.8689,0,-1.8796,-1.8797,-1.8799,-1.8827,-1.8826,-1.8826,-1.8825,-1.8934,-1.8937,-1.8941,0,0,0,0,0,0,0,0,0,0,0,0,0,-1.8504,-1.8508,-1.8688,-1.8689,-1.8691,-1.8796,-1.8797,-1.8799,-1.8827,-1.8826,-1.8826,-1.8825,-1.8933,-1.8937,-1.8941,0,0,0,0,0,0,0,0,0,0,0,0,0,-1.8595,-1.8509,-1.8688,-1.8717,-1.8721,-1.8796,-1.8798,-1.8799,-1.8827,-1.8826,-1.8825,-1.8824,-1.8931,-1.8936,-1.8942,-1.8994,0,0,-1.8958,-1.896,0,0,0,0,0,0,0,0,-1.859,-1.8602,-1.8712,-1.8715,-1.872,-1.8797,-1.8773,-1.8864,-1.8828,-1.8787,-1.8825,-1.8824,-1.8889,-1.8898,-1.892,-1.8999,-1.9003,-1.8958,-1.8961,-1.8964,-1.8965,0,0,0,0,0,0,0,-1.8584,-1.8598,-1.8731,-1.8713,-1.8718,-1.8725,-1.8737,-1.879,-1.8842,-1.879,-1.8793,-1.8805,-1.8891,-1.8915,-1.8923,-1.9005,-1.8958,-1.8963,-1.8966,-1.8968,-1.9133,-1.9134,0,0,0,0,0,0,-1.8573,-1.8592,-1.8727,-1.8734,-1.8651,-1.8729,-1.8742,-1.8773,-1.8842,-1.8851,-1.8806,-1.8806,-1.8906,-1.8917,-1.8927,-1.8993,-1.8964,-1.8968,-1.8971,-1.9132,-1.9133,-1.9134,0,0,0,0,0,0,-1.8569,-1.8584,-1.8723,-1.8664,-1.8682,-1.8733,-1.8768,-1.8776,-1.88,-1.8853,-1.8863,-1.8821,-1.8906,-1.8919,-1.8977,-1.8997,-1.8971,-1.8976,-1.913,-1.9132,-1.9134,-1.9125,0,0,0,0,0,0,-1.8563,-1.8583,-1.8603,-1.8664,-1.8685,-1.8772,-1.8769,-1.8779,-1.8809,-1.881,-1.887,-1.8879,-1.8906,-1.8969,-1.8982,-1.9004,-1.898,-1.9129,-1.9131,-1.9133,-1.9124,-1.9126,-1.9129,0,0,0,0,0,-1.8556,-1.8596,-1.8604,-1.862,-1.8712,-1.8773,-1.8785,-1.8816,-1.8811,-1.8832,-1.8866,-1.8877,-1.8993,-1.8975,-1.899,-1.9013,-1.9127,-1.913,-1.9133,-1.9123,-1.9126,-1.9128,0,0,0,0,0,0,-1.8535,-1.8604,-1.8614,-1.8675,-1.8718,-1.8778,-1.8805,-1.8818,-1.8864,-1.8863,-1.8899,-1.8913,-1.8968,-1.8996,-1.8975,-1.9068,-1.906,-1.9066,-1.9047,-1.9051,-1.9053,-1.9045,-1.8984,0,0,0,0,0,-1.8538,-1.8582,-1.864,-1.8687,-1.8709,-1.8753,-1.8781,-1.8802,-1.8847,-1.8866,-1.8904,-1.8948,-1.8994,-1.9024,-1.9069,-1.9128,-1.9142,-1.9152,-1.9154,-1.9156,-1.916,-1.9194,-1.9199,-1.9143,-1.9143,-1.9143,0,0,-1.8543,-1.8586,-1.8612,-1.8684,-1.872,-1.8765,-1.8768,-1.8815,-1.8849,-1.8872,-1.893,-1.896,-1.9011,-1.907,-1.9097,-1.9095,-1.9179,-1.9159,-1.916,-1.9164,-1.9197,-1.9203,-1.9207,-1.9145,-1.9145,-1.9145,0,0,-1.8575,-1.8612,-1.8657,-1.8693,-1.8748,-1.8777,-1.8788,-1.8846,-1.8867,-1.8925,-1.8944,-1.8984,-1.9063,-1.9099,-1.9128,-1.9175,-1.9187,-1.9189,-1.9201,-1.9234,-1.9238,-1.9242,-1.926,-1.9265,-1.9193,-1.9193,-1.9193,0,-1.8575,-1.8644,-1.8677,-1.8724,-1.8756,-1.878,-1.8825,-1.8858,-1.8925,-1.8946,-1.8942,-1.9043,-1.9079,-1.9147,-1.9158,-1.918,-1.9194,-1.9182,-1.9235,-1.9239,-1.9244,-1.9261,-1.9267,-1.9193,-1.9193,-1.9193,-1.9193,0,-1.864,-1.8688,-1.8717,-1.8782,-1.8816,-1.8862,-1.8902,-1.8933,-1.8951,-1.8981,-1.904,-1.9085,-1.914,-1.9158,-1.9175,-1.9228,-1.9225,-1.9228,-1.9221,-1.9248,-1.9265,-1.9272,-1.9193,-1.9193,-1.9193,-1.9193,0,0,-1.8662,-1.8746,-1.8756,-1.8786,-1.8848,-1.8886,-1.8932,-1.8988,-1.9014,-1.9059,-1.9099,-1.9166,-1.9169,-1.9201,-1.9223,-1.9252,-1.9287,-1.9251,-1.9253,-1.9257,-1.9349,-1.9347,-1.9354,-1.9295,-1.9297,-1.9298,-1.9345,0,-1.8703,-1.8788,-1.882,-1.889,-1.8934,-1.8959,-1.8999,-1.9042,-1.9071,-1.9113,-1.9145,-1.9192,-1.9193,-1.9212,-1.9242,-1.9276,-1.9306,-1.9274,-1.9333,-1.9335,-1.932,-1.9362,-1.936,-1.9402,-1.9351,-1.9353,-1.9353,0,-1.8761,-1.8808,-1.8883,-1.8941,-1.8961,-1.8997,-1.905,-1.909,-1.9139,-1.9158,-1.9195,-1.9215,-1.9265,-1.9255,-1.9324,-1.9301,-1.9328,-1.9349,-1.9351,-1.9358,-1.9346,-1.937,-1.9416,-1.9423,-1.9364,-1.9363,-1.9362,0,-1.877,-1.8852,-1.8907,-1.8932,-1.9001,-1.9026,-1.9056,-1.9104,-1.9135,-1.9182,-1.9203,-1.9254,-1.9282,-1.9321,-1.9355,-1.9344,-1.9421,-1.9414,-1.9438,-1.9438,-1.9453,-1.9452,-1.9504,-1.947,-1.947,-1.947,-1.9469,0,-1.8812,-1.8857,-1.8912,-1.8946,-1.8997,-1.9034,-1.9083,-1.9114,-1.9157,-1.9197,-1.9221,-1.9258,-1.93,-1.9343,-1.9369,-1.9423,-1.9435,-1.9452,-1.9458,-1.945,-1.9448,-1.9468,-1.9466,-1.9471,-1.9471,-1.9471,-1.947,0,-1.8831,-1.887,-1.8932,-1.8992,-1.9009,-1.9043,-1.9095,-1.9129,-1.916,-1.9211,-1.9224,-1.9272,-1.9324,-1.9361,-1.9427,-1.9445,-1.9503,-1.9509,-1.9486,-1.949,-1.9512,-1.951,-1.9579,-1.9591,-1.9548,-1.9548,-1.9549,0,-1.8855,-1.889,-1.8955,-1.8984,-1.9014,-1.9061,-1.9093,-1.9131,-1.9164,-1.9223,-1.9249,-1.9303,-1.9348,-1.9429,-1.9469,-1.952,-1.9528,-1.9549,-1.9535,-1.9526,-1.9529,-1.9526,-1.953,-1.955,-1.9551,-1.9551,-1.9551,0,-1.8895,-1.8913,-1.8959,-1.9012,-1.9051,-1.9094,-1.9138,-1.916,-1.9205,-1.9241,-1.9295,-1.9329,-1.9398,-1.945,-1.9506,-1.9536,-1.9551,-1.9555,-1.9564,-1.9555,-1.9541,-1.955,-1.9492,-1.9553,-1.9553,-1.9553,-1.9553,-1.9553,-1.8917,-1.895,-1.9001,-1.9052,-1.9089,-1.913,-1.9165,-1.9201,-1.9246,-1.9305,-1.9324,-1.938,-1.9429,-1.9504,-1.9535,-1.9579,-1.9578,-1.959,-1.9594,-1.9596,-1.9596,-1.9534,-1.9589,-1.9589,-1.9589,-1.9589,-1.9589,0,-1.8959,-1.8993,-1.9039,-1.9101,-1.9141,-1.9153,-1.9202,-1.9235,-1.9284,-1.9328,-1.9372,-1.9434,-1.9485,-1.953,-1.9584,-1.961,-1.9618,-1.9623,-1.9621,-1.9628,-1.9593,-1.9581,-1.9615,-1.9615,-1.9615,-1.9615,-1.9615,-1.9615,-1.8985,-1.9041,-1.9065,-1.914,-1.9174,-1.9229,-1.9256,-1.9294,-1.933,-1.9398,-1.9441,-1.9471,-1.9515,-1.9572,-1.962,-1.9632,-1.9651,-1.9653,-1.9667,-1.9634,-1.963,-1.9627,-1.9616,-1.9657,-1.9657,-1.9698,-1.9699,-1.9699]}]]